星链-36908(STARLINK-36908)

导读

STARLINK-36908(NORAD编号67945)是美国太空探索技术公司(SpaceX)所属的星链(Starlink)星座卫星,采用Starlink V1.0平台,2024年12月8日发射入轨,截至2026年4月已在轨超480天。该卫星运行于近地轨道,轨道倾角约43.001°,近地点约355千米、远地点约357千米,轨道周期约91.66分钟。作为星链全球卫星互联网项目的组成部分,它承担着为全球提供高速低延迟互联网接入服务的任务,助力缩小数字鸿沟,同时可支持军事、航空等领域通信需求。

基本信息
目录编号:
67945
目录名称:
STARLINK-36908
国际标识:
2026-037P
轨道中心:
EARTH
卫星名称:
星链-36908
卫星全名:
星链-36908(STARLINK-36908)
卫星状态:
在轨 (已飞行109 天)
发射日期:
2026-02-24 UTC
国别 :
美国 (US)
星等 :
--
轨道信息
数据来源 国际轨道数据 AOE轨道数据
星历时间 2026-06-10T16:12:47+0800
2天前
查看轨道信息
2026-06-09T18:00:00+0800
3天前
查看轨道信息
半长轴 6861.144km 6861.095km
偏心率 0.0001118 0.0004121
轨道倾角 43.004° 42.987°
近地点辐角 263.943° 261.383°
升交点赤经 27.210° 32.442°
平近点角 96.129° 42.897°
近地点 482.239km 480.13km
远地点 483.775km 485.786km
周期 94.266分钟 94.265分钟
每日圈数 15.275943 15.276105
详细信息
固有亮度:
5
最大亮度:
2.5
卫星平台:
Starlink V1.0
覆盖范围:
全球
运营商:
太空探索技术公司
运营商所在国:
美国
制造商(研发单位):
太空探索技术公司
制造商所在国:
美国
使用方式:
暂无
卫星简介
Starlink 计划是 SpaceX 推出的全球卫星互联网项目,通过发射低轨道卫星,为全球尤其是偏远地区提供高速、低延迟的互联网服务。自 2019 年起,Starlink 已部署数千颗卫星,旨在缩小全球数字鸿沟,推动互联网普及。该项目还为军事、航空等行业提供通信支持,带来广泛经济效益。
2D轨道图
3D轨道图
轨道高度分析图
轨道倾角分析图
轨道综合分析图
查看轨道综合分析图